Regional Weather Roundup
Issued by NWS

Home | Current Version | Previous Version | Text Only | Print | Product List | Glossary Off
Versions: 1 2 3 4 5 6 7 8 9 10 11 12 13 14 15 16 17 18 19 20 21 22 23 24 25 26 27 28 29 30 31 32 33 34 35 36 37 38 39 40 41 42 43 44 45 46 47 48 49 50

000
ASUS45 KABQ 041901
RWRNM
NEW MEXICO REGIONAL WEATHER ROUNDUP
NATIONAL WEATHER SERVICE ALBUQUERQUE NM
100 PM MDT TUE AUG 04 2015

NOTE: "FAIR" MEANS FEW OR NO CLOUDS BELOW 12,000 FEET AGL WITH NO
       SIGNIFICANT WEATHER OR OBSTRUCTIONS TO VISION.

      THIS PRODUCT IS RELEASED AS TWO VERSIONS.  ONE VERSION NEAR
      THE TOP OF THE HOUR CONTAINING PRELIMINARY DATA FROM ALBUQUERQUE
      AND OTHER STATIONS.  A FINAL VERSION WITH ADDITIONAL DATA IS
      ISSUED ABOUT 10 MINUTES AFTER THE HOUR.

NMZ501-503-504-510>518-042000-
NORTHWEST PLATEAU/NORTHCENTRAL MOUNTAINS

CITY           SKY/WX    TMP DP  RH WIND       PRES   REMARKS
FARMINGTON     SUNNY     86  47  25 SW8       30.18F
SANTA FE       SUNNY     85  46  25 W12G21    30.24F
TAOS           PTSUNNY  N/A N/A N/A NW6       30.30S

$$
NMZ402-403-502-505>509-042000-
WESTCENTRAL MOUNTAINS/SOUTHWEST MOUNTAINS

CITY           SKY/WX    TMP DP  RH WIND       PRES   REMARKS
GALLUP         PTSUNNY   83  42  23 VRB5      30.27F
SILVER CITY      N/A     86  54  32 S8        30.22F

$$
NMZ407-409-411-412-042000-
SOUTHERN DESERTS

CITY           SKY/WX    TMP DP  RH WIND       PRES   REMARKS
DEMING         SUNNY     89  57  33 CALM      30.11F
ALAMOGORDO     SUNNY     90  55  31 N5        30.10F
T OR C         SUNNY     91  51  25 SW7       30.13F

$$
NMZ519>523-042000-
CENTRAL VALLEYS/CENTRAL HIGHLANDS

CITY           SKY/WX    TMP DP  RH WIND       PRES   REMARKS
ALBUQUERQUE    MOSUNNY   86  48  26 VRB6      30.19F
DOUBLE EAGLE   MOSUNNY   84  52  32 S12G17    30.22F
MORIARTY ARPT    N/A     85  44  23 W14       30.25S
CLINES CORNERS SUNNY     80  50  34 W14       30.30S
BELEN          FAIR      89  45  21 S8        30.17F
SOCORRO        NOT AVBL

$$
NMZ524>526-539-540-042000-
SOUTHCENTRAL MOUNTAINS

CITY           SKY/WX    TMP DP  RH WIND       PRES   REMARKS
RUIDOSO          N/A    N/A N/A N/A MISG        N/A

$$
NMZ527>531-042000-
NORTHEAST HIGHLANDS/NORTHEAST PLAINS

CITY           SKY/WX    TMP DP  RH WIND       PRES   REMARKS
RATON          SUNNY     84  49  29 SE10      30.16F
CLAYTON        NOT AVBL

$$
NMZ532>537-042000-
EASTCENTRAL PLAINS

CITY           SKY/WX    TMP DP  RH WIND       PRES   REMARKS
TUCUMCARI      SUNNY     87  63  44 W7        30.03F
CANNON AFB     SUNNY     85  64  50 NW8       30.07S
CLOVIS AIRPORT SUNNY     84  63  48 W6        30.08S

$$
NMZ028-029-538-042000-
SOUTHEAST PLAINS

CITY           SKY/WX    TMP DP  RH WIND       PRES   REMARKS
ROSWELL        SUNNY     94  59  31 VRB5      30.03F
ARTESIA        SUNNY     88  64  45 CALM      30.04F
CARLSBAD       SUNNY     97  56  25 NW9       30.00F HX  95
HOBBS          SUNNY     86  66  51 S7        30.05F


$$


USA.gov is the U.S. government's official web portal to all federal, state and local government web resources and services.